Weather History for Fort Leonard Wood, MO

Change the Weather History Date:

Monday, February 18, 2013

  Actual Average Record
Temperature  
Mean Temperature 42 °F -  
Max Temperature 53 °F 46 °F 66 °F (1997)
Min Temperature 30 °F 32 °F 5 °F (2006)
Degree Days  
Heating Degree Days 22    
Moisture  
Dew Point 43 °F    
Average Humidity 88    
Maximum Humidity 100    
Minimum Humidity 62    
Precipitation  
Precipitation 0.15 in - - ()
Sea Level Pressure  
Sea Level Pressure 29.70 in    
Wind  
Wind Speed 15 mph (SSW)    
Max Wind Speed 23 mph    
Max Gust Speed 36 mph    
Visibility 10 miles    
Events Rain , Thunderstorm    
Averages and records for this station are not official NWS values.
T = Trace of Precipitation, MM = Missing Value Source: NWS Daily Summary

Daily Weather History Graph

Daily Weather History Graph

Search for Another Location

Airport:

Trip Planner

Search our weather history database for the weather conditions in past years. The results will help you decide how hot, cold, wet, or windy it might be!

Date:

Astronomy

Feb. 18, 2013 Rise Set
Actual Time 6:54 AM CST 5:51 PM CST
Civil Twilight 6:27 AM CST 6:17 PM CST
Nautical Twilight 5:56 AM CST 6:48 PM CST
Astronomical Twilight 5:26 AM CST 7:18 PM CST
Moon 11:40 AM CST (2/18) 1:31 AM CST (2/18)
Length of Visible Light 11h 50m
Length of Day
10h 56m
First Quarter, 58% of the Moon is Illuminated
Feb 18
First Quarter
Feb 25
Full
Mar 4
Last Quarter
Mar 11
New
Mar 19
First Quarter

Hourly Weather History & Observations

Time (CST) Temp. Windchill Dew Point Humidity Pressure Visibility Wind Dir Wind Speed Gust Speed Precip Events Conditions
12:55 AM 44.8 °F 39.0 °F 34.2 °F 66% 29.84 in 10.0 mi SSE 11.5 mph - N/A   Clear
1:55 AM 43.5 °F 37.9 °F 34.3 °F 70% 29.83 in 10.0 mi SE 10.4 mph - N/A   Clear
2:55 AM 47.3 °F - 35.1 °F 62% 29.80 in 10.0 mi SSE 12.7 mph - N/A   Clear
3:55 AM 47.5 °F - 35.2 °F 63% 29.78 in 10.0 mi SSE 11.5 mph - N/A   Clear
4:55 AM 45.9 °F 40.4 °F 35.8 °F 68% 29.77 in 10.0 mi SE 11.5 mph - N/A   Clear
5:55 AM 46.8 °F - 36.9 °F 68% 29.76 in 10.0 mi SSE 15.0 mph 20.7 mph N/A   Clear
6:55 AM 46.4 °F 39.5 °F 37.9 °F 72% 29.75 in 10.0 mi SSE 17.3 mph - N/A   Clear
7:55 AM 47.1 °F - 39.6 °F 75% 29.75 in 10.0 mi South 13.8 mph 23.0 mph N/A   Partly Cloudy
8:55 AM 51.6 °F - 43.0 °F 72% 29.73 in 10.0 mi South 17.3 mph 28.8 mph N/A   Mostly Cloudy
9:13 AM 51.8 °F - 44.6 °F 76% 29.73 in 10.0 mi South 20.7 mph 35.7 mph N/A   Overcast
9:15 AM 51.8 °F - 44.6 °F 76% 29.73 in 10.0 mi South 20.7 mph 35.7 mph N/A   Overcast
9:23 AM 53.6 °F - 44.6 °F 72% 29.73 in 10.0 mi South 20.7 mph 32.2 mph N/A   Overcast
9:55 AM 52.3 °F - 44.4 °F 74% 29.72 in 10.0 mi South 16.1 mph 27.6 mph N/A   Overcast
10:55 AM 52.2 °F - 45.7 °F 79% 29.71 in 10.0 mi South 20.7 mph 28.8 mph N/A   Overcast
10:58 AM 51.8 °F - 46.4 °F 82% 29.71 in 10.0 mi SSE 20.7 mph 27.6 mph N/A   Overcast
11:55 AM 51.4 °F - 46.6 °F 83% 29.70 in 10.0 mi South 17.3 mph 23.0 mph N/A   Overcast
12:55 PM 52.0 °F - 47.5 °F 85% 29.66 in 10.0 mi South 17.3 mph 28.8 mph N/A   Overcast
1:34 PM 51.8 °F - 48.2 °F 88% 29.62 in 10.0 mi South 23.0 mph 28.8 mph N/A   Light Drizzle
1:45 PM 51.8 °F - 50.0 °F 94% 29.61 in 10.0 mi South 20.7 mph 28.8 mph N/A   Overcast
1:48 PM 51.8 °F - 50.0 °F 94% 29.60 in 10.0 mi SSE 23.0 mph 28.8 mph N/A Rain Light Rain
1:55 PM 51.8 °F - 50.0 °F 94% 29.60 in 10.0 mi SSE 19.6 mph 27.6 mph 0.00 in Rain Light Rain
1:56 PM 51.8 °F - 50.0 °F 94% 29.60 in 10.0 mi SSE 18.4 mph 27.6 mph N/A Rain Light Rain
2:18 PM 50.0 °F - 50.0 °F 100% 29.60 in 9.0 mi SSE 19.6 mph 27.6 mph N/A Rain Light Rain
2:44 PM 50.0 °F - 50.0 °F 100% 29.59 in 10.0 mi South 17.3 mph 27.6 mph N/A   Overcast
2:49 PM 50.0 °F - 50.0 °F 100% 29.58 in 10.0 mi South 18.4 mph 24.2 mph N/A Rain Light Rain
2:55 PM 50.5 °F - 50.4 °F 99% 29.58 in 10.0 mi South 17.3 mph - 0.03 in Rain Light Rain
2:59 PM 50.0 °F - 50.0 °F 100% 29.58 in 10.0 mi South 17.3 mph 24.2 mph N/A   Overcast
3:00 PM 50.0 °F - 50.0 °F 100% 29.58 in 10.0 mi South 17.3 mph 24.2 mph N/A Rain Light Rain
3:14 PM 50.0 °F - 50.0 °F 100% 29.56 in 10.0 mi SSE 19.6 mph 26.5 mph N/A Rain , Thunderstorm Light Thunderstorms and Rain
3:29 PM 50.0 °F - 50.0 °F 100% 29.56 in 10.0 mi South 13.8 mph 24.2 mph N/A   Light Drizzle
3:46 PM 50.0 °F - 50.0 °F 100% 29.55 in 10.0 mi South 16.1 mph 21.9 mph N/A Rain Light Rain
3:51 PM 50.0 °F - 50.0 °F 100% 29.56 in 10.0 mi South 12.7 mph 24.2 mph N/A Rain Light Rain
3:55 PM 50.7 °F - 50.4 °F 99% 29.55 in 10.0 mi South 10.4 mph 24.2 mph 0.03 in Rain Light Rain
3:56 PM 50.0 °F - 50.0 °F 100% 29.55 in 10.0 mi South 10.4 mph 24.2 mph N/A Rain Light Rain
3:57 PM 50.0 °F - 50.0 °F 100% 29.56 in 10.0 mi South 10.4 mph 24.2 mph N/A Rain Light Rain
4:00 PM 50.0 °F - 50.0 °F 100% 29.56 in 10.0 mi South 13.8 mph 20.7 mph N/A Rain Light Rain
4:11 PM 50.0 °F - 50.0 °F 100% 29.60 in 2.5 mi WSW 12.7 mph 27.6 mph N/A Rain Heavy Rain
4:22 PM 50.0 °F - 50.0 °F 100% 29.59 in 7.0 mi SSW 13.8 mph 23.0 mph N/A Rain Light Rain
4:29 PM 50.0 °F - 50.0 °F 100% 29.60 in 9.0 mi SSW 10.4 mph 20.7 mph N/A Rain Light Rain
4:30 PM 50.0 °F - 50.0 °F 100% 29.60 in 9.0 mi SSW 11.5 mph 20.7 mph N/A Rain Light Rain
4:33 PM 50.0 °F - 50.0 °F 100% 29.60 in 9.0 mi SW 10.4 mph 20.7 mph N/A Rain Light Rain
4:45 PM 50.0 °F - 50.0 °F 100% 29.60 in 10.0 mi SW 9.2 mph - N/A   Overcast
4:51 PM 50.0 °F - 50.0 °F 100% 29.61 in 10.0 mi WSW 8.1 mph - N/A   Overcast
4:55 PM 50.4 °F - 49.8 °F 98% 29.62 in 10.0 mi SW 10.4 mph 18.4 mph 0.09 in   Overcast
4:56 PM 50.0 °F - 50.0 °F 100% 29.63 in 10.0 mi West 15.0 mph 23.0 mph N/A   Light Drizzle
5:03 PM 50.0 °F - 48.2 °F 94% 29.64 in 10.0 mi WNW 23.0 mph 32.2 mph N/A   Light Drizzle
5:10 PM 48.2 °F - 46.4 °F 93% 29.66 in 10.0 mi WNW 19.6 mph 32.2 mph N/A Rain Light Rain
5:21 PM 46.4 °F 38.5 °F 46.4 °F 100% 29.67 in 10.0 mi WNW 21.9 mph 32.2 mph N/A   Light Drizzle
5:27 PM 44.6 °F 37.2 °F 44.6 °F 100% 29.68 in 10.0 mi WNW 17.3 mph 32.2 mph N/A   Light Drizzle
5:33 PM 44.6 °F 36.6 °F 42.8 °F 93% 29.70 in 10.0 mi NW 19.6 mph 26.5 mph N/A   Overcast
5:52 PM 41.0 °F 32.5 °F 41.0 °F 100% 29.73 in 10.0 mi WNW 17.3 mph 25.3 mph N/A   Overcast
5:55 PM 41.4 °F 33.3 °F 40.6 °F 97% 29.74 in 10.0 mi West 16.1 mph 25.3 mph 0.00 in   Overcast
6:14 PM 41.0 °F 31.9 °F 39.2 °F 93% 29.76 in 10.0 mi NW 19.6 mph 33.4 mph N/A   Overcast
6:55 PM 39.7 °F 31.5 °F 37.0 °F 90% 29.81 in 10.0 mi WNW 15.0 mph 20.7 mph N/A   Overcast
7:49 PM 39.2 °F 29.8 °F 35.6 °F 87% 29.83 in 10.0 mi WNW 18.4 mph 25.3 mph N/A   Overcast
7:55 PM 39.4 °F 30.4 °F 34.3 °F 82% 29.84 in 10.0 mi WNW 17.3 mph 23.0 mph N/A   Overcast
8:01 PM 39.2 °F 30.2 °F 33.8 °F 81% 29.85 in 10.0 mi WNW 17.3 mph 26.5 mph N/A   Overcast
8:19 PM 39.2 °F 31.6 °F 33.8 °F 81% 29.87 in 10.0 mi WNW 12.7 mph 25.3 mph N/A   Overcast
8:23 PM 37.4 °F 28.2 °F 33.8 °F 87% 29.87 in 10.0 mi WNW 16.1 mph 26.5 mph N/A   Overcast
8:55 PM 36.3 °F 26.4 °F 31.6 °F 83% 29.90 in 10.0 mi WNW 17.3 mph 28.8 mph N/A   Overcast
9:26 PM 35.6 °F 27.1 °F 30.2 °F 81% 29.92 in 10.0 mi WNW 12.7 mph 25.3 mph N/A   Overcast
9:55 PM 34.7 °F 25.1 °F 27.9 °F 76% 29.95 in 10.0 mi WNW 15.0 mph 24.2 mph N/A   Overcast
10:55 PM 32.5 °F 23.2 °F 25.7 °F 76% 29.98 in 10.0 mi West 12.7 mph 19.6 mph N/A   Overcast
11:08 PM 32.0 °F 21.6 °F 24.8 °F 75% 29.99 in 10.0 mi West 15.0 mph 24.2 mph N/A   Scattered Clouds
11:55 PM 30.6 °F 21.2 °F 22.3 °F 71% 30.02 in 10.0 mi WNW 11.5 mph 23.0 mph N/A   Clear